Hourly Data Report for July 27, 2021

KITCHENER/WATERLOO
ONTARIO
Current Station Operator: NAVCAN

43°27'39.000" N
80°22'43.000" W
321.60 m
6144239
71368
YKF

Download Data

Hourly Data (July 2021)
Hourly Data Report for July 27, 2021
TIME
LST
Temp Definition
°C
Dew Point Definition
°C
Rel Hum Definition
%
Precip. Amount Definition
mm

Wind Dir Definition
10's deg

Wind Spd Definition
km/h
Visibility Definition
km
Stn Press Definition
kPa
Hmdx Definition


Wind Chill Definition


Weather Definition


00:00 15.1 13.7 91 0.0   0 16.1 97.76     LegendNANA
01:00 14.0 13.5 97 0.0   0 16.1 97.79     LegendNANA
02:00 13.4 13.1 98 0.0   0 16.1 97.77     LegendNANA
03:00 12.8 12.5 98 0.0   0 16.1 97.73     LegendNANA
04:00 12.8 12.5 98 0.0   0 11.3 97.73     LegendNANA
05:00 12.2 11.9 98 0.0   0 11.3 97.66     LegendNANA
06:00 13.9 13.6 98 0.0 LegendMM 4 16.1 97.66     LegendNANA
07:00 18.4 16.6 89 0.0 29 13 16.1 97.73     LegendNANA
08:00 18.9 16.3 85 0.5 26 17 16.1 97.82     Rain
09:00 19.4 17.4 88 0.2 LegendMM 4 16.1 97.67     LegendNANA
10:00 19.3 17.8 91 1.5 LegendMM 4 16.1 97.67     Thunderstorms, Rain
11:00 21.0 17.8 82 0.0 20 8 16.1 97.69 27   LegendNANA
12:00 23.0 18.2 74 0.0 29 9 16.1 97.72 29   LegendNANA
13:00 23.6 18.0 70 0.0 28 18 16.1 97.71 30   LegendNANA
14:00 24.3 18.6 70 0.0 27 21 16.1 97.71 31   LegendNANA
15:00 24.0 18.6 71 0.0 30 18 16.1 97.71 30   LegendNANA
16:00 24.9 17.2 62 0.0 32 13 16.1 97.70 30   LegendNANA
17:00 24.3 16.9 63 0.0 31 17 16.1 97.73 30   LegendNANA
18:00 23.3 16.3 64 0.0 30 13 16.1 97.75 28   LegendNANA
19:00 22.0 16.5 71 0.0 31 11 16.1 97.79 27   LegendNANA
20:00 19.6 16.6 82 0.0 33 8 16.1 97.81     LegendNANA
21:00 18.0 16.4 90 0.0 33 8 16.1 97.86     LegendNANA
22:00 17.8 16.4 92 0.0 35 8 16.1 97.85     LegendNANA
23:00 16.8 16.3 97 0.0 1 5 16.1 97.93     LegendNANA

Notes on Data Quality.

Legend

  • E = Estimated
  • M = Missing
  • NA = Not Available*
  • [empty] = Indicates an unobserved value
Date modified: